Вернуться в каталог

STARLINK-38251

АктивенСвязьSSO
NORAD 100229·PAYLOAD·🇺🇸 United States

Запущен Aug 4, 2026 с Vandenberg Space Force Base

Loading…

Ближайшие Пролёты (ближайшие 24 часа)

TLE

СвежийSource: Space-Track

Эпоха: Sep 14, 2026, 21:42 UTC

1 A0229U 26177S   26257.90452444 -.00288286  00000-0 -54608-2 0  9991
2 A0229  97.2840 308.7915 0002036  92.8040 267.3444 15.49364105  7579

Отслеживайте STARLINK-38251 в реальном времени с AllMySat

Download on the App Store